OBJECT Y, 68438

Orbit data source: Space-Track

You're viewing an Uncataloged Satellite

Recently launched and/or uncataloged satellites may have evolving metadata. Metadata may include but not limited to: Owner, Maufacturer, Bus, Motor, and Mission.

OBJECT Y, 68438 is a satellite in SSO that was launched on Mon, 30 Mar 2026 UTC via an FALCON 9 launch vehicle from the Air Force Western Test Range (AFWTR). Unknown objects in Earth's orbit typically refer to objects detected orbiting the Earth but have not yet been identified or cataloged. These objects could be anything from previously untracked satellites, spent rocket stages, debris from satellite collisions, or even natural meteoroids temporarily captured by Earth's gravity.

Loading next visibility...
Identifier
68438, 2026-067Y
Orbit
SSO
Country
Flag of TBDTBD
Related business
None
Manufacturer
Unknown
Mission
Operational spacecraft
Bus & Motor
Unknown
Mass
Unknown
Launch date (UTC)
2026-03-30 (3 months ago)
Launch vehicle
FALCON 9
Launch site
Air Force Western Test Range (AFWTR)
Object type
Unknown
Shape & HBR
Unknown shape, 1.1 m
Radar Cross Section
Medium (>0.1 m² and <1 m²)

Expand to show TLE details & history
Last TLE update: 2 days ago

TLE from 2 days ago
0 OBJECT Y
1 68438U 26067Y   26171.39995354  .00015118  00000-0  70718-3 0  9996
2 68438  97.4528 129.8818 0004722  61.4157 298.7552 15.19844009 12431
Epoch: 2026-06-20T09:35Z
TLE epoch observation values (Epoch: 2026-06-20T09:35:55.985Z)
Latitude
-0.0001°
Longitude
77.28342°
Altitude
507.837 km
Speed
7.611 km/s
True Right ascension
08h 39m 31s
True Declination
0° 00' 00"
Sunlit
Object was in daylight at epoch
Visualization orbit readout
Latitude
Unknown
Longitude
Unknown
Altitude
Unknown
Speed
Unknown
Apparent Right ascension
Unknown
Apparent Declination
Unknown
Sunlit
N/A
Visualization observer readout
Local Sidereal Time
15:18:23
Azimuth
Unknown
Elevation
Unknown
Doppler factor
Unknown
Orbital elements
Apogee altitude
506.529 km
Perigee altitude
500.03 km
Semi-major axis
6,881.417 km
Eccentricity
0.00047
Inclination
97.4528°
RAAN
129.8818°
Arg. of periapsis
61.4157°
True anomaly
298.70775°
Mean anomaly
298.7552°
Eccentric anomaly
298.73148°
Mean motion
3.80212 °/min
Orbital period
94.68 mins
BSTAR
0.00070718
Loading maneuver chart data...
Computing Atmospheric mass density...
Loading historical data...
Loading historical data...
Loading historical data...
Loading historical data...
Loading historical data...
Loading historical data...
Loading historical data...

Documentation

Showing up to 5 results
|